,

(GMT )
Makkah

Weather History for OEMK - January, 2013

Change the Weather History Date:

Wednesday, January 23, 2013

  Actual Average Record
Temperature  
Mean Temperature 84 °F -  
Max Temperature 96 °F 84 °F 96 °F (2013)
Min Temperature 71 °F 65 °F 59 °F (1997)
Cooling Degree Days 18    
Growing Degree Days 34 (Base 50)    
Moisture  
Dew Point 64 °F    
Average Humidity 56    
Maximum Humidity 78    
Minimum Humidity 25    
Precipitation  
Precipitation 0.00 in - - ()
Sea Level Pressure  
Sea Level Pressure 29.98 in    
Wind  
Wind Speed 1 mph ()    
Max Wind Speed 5 mph    
Max Gust Speed -    
Visibility 5.9 miles    
Events      
Averages and records for this station are not official NWS values.
T = Trace of Precipitation, MM = Missing Value Source: Averaged Metar Reports

Daily Weather History Graph

Daily Weather History Graph

Search for Another Location

Airport or City:

Trip Planner

Search our weather history database for the weather conditions in past years. The results will help you decide how hot, cold, wet, or windy it might be!

Date:

Astronomy

Jan. 23, 2013 Rise Set
Actual Time 6:59 AM AST 6:04 PM AST
Civil Twilight 6:36 AM AST 6:27 PM AST
Nautical Twilight 6:09 AM AST 6:54 PM AST
Astronomical Twilight 5:42 AM AST 7:21 PM AST
Moon 3:02 PM AST (1/23) 3:48 AM AST (1/23)
Length of Visible Light 11h 51m
Length of Day
11h 04m
Waxing Gibbous, 87% of the Moon is Illuminated
Jan 23
Waxing Gibbous
Jan 27
Full
Feb 3
Last Quarter
Feb 10
New
Feb 17
First Quarter

Hourly Weather History & Observations

Time (AST) Temp. Heat Index Dew Point Humidity Pressure Visibility Wind Dir Wind Speed Gust Speed Precip Events Conditions
12:00 AM 77 °F - 64 °F 57% 29.96 in 6 mi Calm Calm - -  
12:00 AM 77.0 °F - 64.4 °F 65% 30.01 in - Calm Calm - N/A   Clear
1:00 AM 77.0 °F - 64.4 °F 65% 29.98 in - Calm Calm - N/A   Clear
2:00 AM 75.2 °F - 62.6 °F 65% 29.98 in - Calm Calm - N/A   Clear
3:00 AM 74 °F - 64 °F 65% 29.94 in 6 mi Calm Calm - -  
3:00 AM 75.2 °F - 64.4 °F 69% 29.98 in - Calm Calm - N/A   Clear
4:00 AM 73.4 °F - 62.6 °F 69% 29.98 in - Calm Calm - N/A   Clear
5:00 AM 73.4 °F - 62.6 °F 69% 29.98 in - Calm Calm - N/A   Clear
6:00 AM 72 °F - 63 °F 65% 29.95 in 6 mi Calm Calm - -  
6:00 AM 71.6 °F - 62.6 °F 73% 29.98 in - Calm Calm - N/A   Clear
7:00 AM 71.6 °F - 62.6 °F 73% 29.98 in - Calm Calm - N/A   Clear
8:00 AM 71.6 °F - 62.6 °F 73% 30.01 in - Calm Calm - N/A   Clear
9:00 AM 73 °F - 66 °F 73% 30.00 in 6 mi Calm Calm - -  
9:00 AM 73.4 °F - 66.2 °F 78% 30.04 in - Calm Calm - N/A   Clear
10:00 AM 82.4 °F 84.6 °F 66.2 °F 58% 30.04 in 5.6 mi Calm Calm - N/A   Clear
11:00 AM 86.0 °F 87.3 °F 64.4 °F 48% 30.04 in 5.6 mi South 2.3 mph - N/A   Clear
12:00 PM 90 °F - 64 °F 33% 29.96 in 6 mi WSW 2.3 mph - -   Haze
12:00 PM 89.6 °F 91.1 °F 64.4 °F 43% 30.01 in 5.6 mi WSW 2.3 mph - N/A   Clear
1:00 PM 91.4 °F 93.2 °F 64.4 °F 41% 29.98 in 5.6 mi SSW 2.3 mph - N/A   Clear
2:00 PM 93.2 °F 94.9 °F 64.4 °F 38% 29.95 in - SSW 2.3 mph - N/A   Clear
3:00 PM 95 °F - 63 °F 25% 29.88 in 6 mi Calm Calm - -  
3:00 PM 95.0 °F 96.0 °F 62.6 °F 34% 29.92 in - Calm Calm - N/A   Clear
4:00 PM 93.2 °F 94.1 °F 62.6 °F 36% 29.92 in - West 2.3 mph - N/A   Clear
5:00 PM 89.6 °F 90.1 °F 62.6 °F 40% 29.95 in - WSW 4.6 mph - N/A   Clear
6:00 PM 86 °F - 64 °F 39% 29.93 in 6 mi SW 4.6 mph - -  
6:00 PM 86.0 °F 87.3 °F 64.4 °F 48% 29.95 in - SW 4.6 mph - N/A   Clear
7:00 PM 82.4 °F 83.9 °F 64.4 °F 54% 29.98 in - Calm Calm - N/A   Clear
8:00 PM 80.6 °F 82.3 °F 64.4 °F 58% 29.98 in - Calm Calm - N/A   Clear
9:00 PM 81 °F - 64 °F 48% 29.97 in 6 mi Calm Calm - -  
9:00 PM 80.6 °F 82.3 °F 64.4 °F 58% 30.01 in - Calm Calm - N/A   Clear
10:00 PM 78.8 °F - 66.2 °F 65% 30.01 in - Calm Calm - N/A   Clear
11:00 PM 78.8 °F - 62.6 °F 57% 29.98 in - Calm Calm - N/A   Clear